This demonstration page uses our WeatherBlox Daily Observations layout. Learn more.

Left ArrowRight Arrow

39.01783, -85.05884

Hourly Observations for April 9, 2020

Temp ( °F °C ) Dew Point ( °F °C ) Humidity (%) Winds ( mph kmh ) Pressure ( in mb ) Visibility ( mi km ) Precip ( " mm )
12:52 am 00:52 Cloudy 56 13.3 53 11.7 90 90 SSW 8 13 29.57 1002 10 16 0.04 1.02
1:44 am 01:44 Cloudy with Mist and Fog 54 12.2 52 11.1 93 93 SW 7 11 29.61 1003 6 10 N/A
1:52 am 01:52 Cloudy with Mist and Fog 55 12.8 53 11.7 93 93 SW 7 11 29.58 1002 6 10 N/A
2:52 am 02:52 Mostly Cloudy 54 12.2 52 11.1 93 93 W 10 17 29.59 1002 7 11 N/A
3:05 am 03:05 Cloudy 55 12.8 53 11.7 93 93 W 13 20 29.61 1003 8 13 N/A
3:41 am 03:41 Cloudy 56 13.3 53 11.7 90 90 W 13 20 29.62 1003 10 16 N/A
3:52 am 03:52 Cloudy 56 13.3 53 11.7 90 90 WNW 12 19 29.60 1002 9 14 N/A
3:54 am 03:54 Cloudy 56 13.3 53 11.7 90 90 WNW 13 20 29.62 1003 9 14 N/A
4:50 am 04:50 Partly Cloudy 54 12 48 9 82 82 WNW 23 37 29.64 1004 10 16 N/A
4:52 am 04:52 Partly Cloudy 54 12.2 48 8.9 80 80 NW 21 33 29.61 1003 10 16 N/A
5:33 am 05:33 Mostly Cloudy 51 10.6 44 6.7 77 77 WNW 18 30 29.67 1005 10 16 N/A
5:52 am 05:52 Cloudy 51 10.6 44 6.7 77 77 WNW 20 31 29.66 1004 10 16 N/A
6:52 am 06:52 Partly Cloudy 49 9.4 40 4.4 71 71 WNW 24 39 29.69 1006 10 16 N/A
7:52 am 07:52 Mostly Sunny 47 8.3 34 1.1 61 61 WNW 28 44 29.72 1007 10 16 N/A
8:52 am 08:52 Sunny 47 8.3 28 -2.2 48 48 WNW 23 37 29.75 1007 10 16 N/A
9:52 am 09:52 Mostly Sunny 48 8.9 23 -5 37 37 WNW 29 46 29.76 1008 10 16 N/A
10:52 am 10:52 Mostly Sunny 50 10 22 -5.6 33 33 W 30 48 29.79 1009 10 16 N/A
11:52 am 11:52 Mostly Sunny 51 10.6 23 -5 33 33 WNW 24 39 29.79 1009 10 16 N/A
12:52 pm 12:52 Partly Cloudy 52 11.1 25 -3.9 35 35 W 17 28 29.77 1008 10 16 N/A
1:52 pm 13:52 Mostly Sunny 53 11.7 20 -6.7 27 27 WNW 25 41 29.75 1008 10 16 N/A
2:52 pm 14:52 Mostly Sunny 55 12.8 19 -7.2 24 24 W 26 43 29.74 1007 10 16 N/A
3:52 pm 15:52 Partly Cloudy 56 13.3 20 -6.7 24 24 WNW 23 37 29.70 1006 10 16 N/A
4:52 pm 16:52 Partly Cloudy 55 12.8 20 -6.7 25 25 NW 25 41 29.71 1006 10 16 N/A
5:52 pm 17:52 Mostly Cloudy 51 10.6 22 -5.6 32 32 WNW 22 35 29.75 1007 10 16 N/A
6:52 pm 18:52 Cloudy 49 9.4 23 -5 36 36 WNW 15 24 29.75 1008 10 16 N/A
7:52 pm 19:52 Cloudy 46 7.8 27 -2.8 47 47 NW 18 30 29.78 1009 10 16 0.00 0.00
8:52 pm 20:52 Cloudy with Light Rain 43 6.1 33 0.6 68 68 NNW 20 31 29.82 1010 10 16 0.00 0.00
9:02 pm 21:02 Cloudy with Light Rain 41 5 34 1.1 76 76 NNW 13 20 29.86 1011 10 16 0.00 0.00
9:36 pm 21:36 Cloudy 40 4.4 35 1.7 83 83 NNW 9 15 29.86 1011 10 16 0.01 0.25
9:52 pm 21:52 Cloudy 40 4.4 35 1.7 83 83 NW 6 9 29.83 1010 10 16 0.01 0.25
10:52 pm 22:52 Cloudy with Light Rain 39 3.9 34 1.1 82 82 WNW 21 33 29.85 1011 9 14 0.00 0.00
11:07 pm 23:07 Cloudy with Light Rain 38 3.3 34 1.1 86 86 WNW 13 20 29.87 1012 10 16 0.01 0.25
11:52 pm 23:52 Cloudy 38 3.3 34 1.1 86 86 W 12 19 29.84 1011 10 16 0.01 0.25

Powered by AerisWeather